GFSCGP_500_spd_021.txt.gz
Wind_Speed
47 51 45 37 43 46 48 48 48 40 36 49 50 53 46 39 37 37 35 35 34 34 29 31 34 37 38 37 35 37 37 35 36 36 34 37 37 36 36 36 37 35 35 34
48 53 42 45 46 48 49 50 51 50 47 52 50 52 48 44 38 32 35 33 33 36 34 33 36 41 41 40 37 38 38 39 38 36 36 33 36 37 38 38 38 38 38 37
48 51 49 48 50 49 49 53 52 54 49 51 55 55 48 39 37 29 29 33 32 32 35 39 42 43 44 43 43 44 43 43 42 40 40 40 39 42 41 41 42 41 40 40
53 46 48 50 52 42 51 43 48 52 53 55 49 54 46 41 40 37 33 29 32 34 38 38 42 45 47 42 43 44 46 47 47 46 45 44 44 48 48 48 46 43 42 39
47 43 44 50 49 49 50 52 52 53 55 57 56 59 60 56 51 41 38 34 28 32 32 37 41 42 46 47 47 47 49 49 50 50 49 50 48 48 47 48 47 44 41 40
45 46 49 48 49 50 49 52 54 57 60 61 58 55 56 61 62 57 54 51 53 48 44 42 40 47 47 47 50 52 52 52 51 48 46 48 51 52 53 51 47 43 43 42
49 50 50 50 53 55 53 51 57 61 64 65 66 65 67 64 65 66 63 62 63 60 56 52 50 47 52 50 54 51 52 51 56 56 55 52 53 52 55 56 53 49 47 46
59 59 57 53 53 55 61 62 61 67 70 69 67 72 68 65 65 69 70 69 68 67 64 62 61 60 56 55 53 53 54 53 53 61 60 61 55 52 52 54 53 53 53 50
70 64 64 62 63 63 60 61 56 62 63 69 77 74 70 67 69 71 71 74 73 69 68 63 61 58 55 58 51 44 46 50 55 59 65 68 63 55 53 53 55 56 57 55
66 71 71 71 68 71 69 65 63 63 62 66 72 74 76 69 71 69 70 70 70 69 63 65 67 59 30 39 46 47 51 55 59 61 59 50 53 61 60 58 58 60 61 61
72 73 76 77 77 72 70 72 74 71 69 71 74 77 77 71 69 68 64 65 65 64 65 51 49 40 45 53 53 50 51 49 44 45 48 51 57 62 67 64 64 66 66 65
72 69 76 83 81 79 80 80 79 80 81 78 76 81 75 73 73 71 64 61 58 66 65 62 61 51 40 48 51 53 58 53 57 61 61 62 65 67 68 72 71 70 67 64
71 69 67 79 84 82 78 77 73 75 75 81 86 88 77 78 81 75 68 65 65 68 73 79 69 58 62 53 53 57 66 66 71 67 74 76 69 65 69 74 74 71 71 69
71 76 79 76 79 79 73 71 73 74 77 82 81 81 77 73 71 70 68 78 82 86 86 80 79 69 67 67 59 56 60 67 73 79 78 76 75 72 72 76 79 72 67 64
68 68 73 75 68 65 74 69 64 70 68 65 71 69 65 69 70 78 79 77 77 80 82 81 81 80 74 71 71 67 61 61 63 61 62 65 70 74 79 76 78 72 65 61
66 64 67 75 74 71 67 63 63 63 66 73 66 68 69 70 63 64 70 76 79 85 81 79 80 81 91 93 87 87 81 76 74 74 60 58 58 67 72 75 77 71 70 67
70 70 71 79 73 69 81 68 71 75 79 85 85 85 81 69 65 58 58 58 66 73 78 85 89 93 92 82 78 78 79 76 75 73 74 64 61 58 61 61 68 66 66 67
72 72 74 81 76 84 80 78 85 87 87 87 88 88 83 74 63 79 71 66 63 63 66 69 74 75 78 77 76 76 80 78 78 79 75 66 70 65 67 70 72 72 70 73
73 73 78 81 83 86 83 82 83 84 85 87 88 87 87 95 96 94 96 93 94 93 93 89 85 74 76 80 84 78 84 89 90 90 82 79 76 76 74 82 78 70 71 71
73 75 78 79 82 86 83 81 82 84 87 88 87 89 89 87 86 81 82 83 83 82 85 89 91 92 80 77 75 77 79 84 85 85 86 80 76 67 65 66 66 70 75 76
71 71 72 73 77 80 77 77 78 79 82 85 86 86 85 83 79 68 71 58 59 66 77 79 86 83 73 76 66 67 72 80 80 81 76 64 62 61 61 62 68 78 80 76
67 68 68 70 73 77 73 73 73 77 78 79 81 84 88 91 92 94 89 85 93 96 92 84 73 77 74 76 75 72 75 81 77 82 82 73 59 60 62 64 69 80 80 71
67 64 68 70 72 71 67 68 69 71 73 74 79 81 82 85 87 89 92 95 101 110 98 88 82 77 71 85 84 84 91 80 66 63 75 79 72 59 66 68 67 70 60 55
63 62 68 68 66 66 66 64 64 67 69 71 74 79 86 88 89 91 92 92 95 97 101 101 94 91 81 82 77 82 77 80 74 73 70 73 72 69 67 72 71 65 66 58
59 60 61 65 66 62 63 64 62 62 61 62 66 70 75 81 86 92 94 95 97 97 97 97 98 97 97 98 98 101 96 89 85 83 76 79 77 73 70 76 71 70 68 67
58 59 58 60 56 51 58 57 53 53 56 58 60 60 63 68 73 77 81 84 88 92 94 96 98 98 97 108 114 116 102 96 93 85 84 87 84 88 76 86 79 74 71 78

GFSCGP_500_spd_024.txt.gz
Wind_Speed
51 53 50 41 45 48 50 51 50 45 41 49 48 52 47 41 37 32 30 32 35 38 36 36 38 41 42 37 38 39 38 36 38 38 37 39 37 36 34 38 39 38 35 36
51 56 49 50 49 50 51 52 53 51 48 53 53 50 49 42 36 31 31 27 28 26 28 32 36 36 39 42 40 40 42 42 42 42 40 40 39 36 37 37 38 39 39 38
50 54 51 50 53 50 48 53 53 56 54 55 57 53 48 39 39 33 23 35 27 31 31 34 37 39 41 43 45 43 43 45 48 46 45 44 42 42 42 42 43 45 45 45
54 51 51 52 51 49 54 43 52 52 55 56 54 55 54 45 38 41 34 35 31 23 30 27 28 33 35 38 42 45 43 44 44 46 47 46 45 45 45 47 50 50 50 49
45 43 43 47 44 50 52 48 48 52 57 57 58 59 59 56 48 50 45 41 44 42 43 40 40 41 42 47 45 45 47 52 48 46 48 50 47 48 52 52 54 55 54 53
49 49 52 48 48 50 51 52 54 55 58 61 57 54 63 63 61 56 56 57 57 56 52 49 46 45 47 49 50 50 50 48 51 51 49 51 53 49 49 54 56 55 55 55
48 49 50 53 52 51 53 53 54 57 60 62 62 63 65 66 65 64 61 61 61 63 60 57 55 54 55 54 56 57 58 57 56 55 54 54 56 56 54 54 54 56 56 55
56 54 53 53 54 56 57 58 62 63 63 64 64 73 70 65 67 68 69 65 64 60 60 60 61 59 59 59 59 58 61 61 60 60 59 56 57 57 57 57 57 58 58 57
66 65 63 61 63 64 64 63 58 62 64 69 70 69 71 68 69 73 73 72 65 64 63 64 62 63 65 61 61 53 54 57 57 59 65 70 67 63 62 60 58 58 55 56
68 70 68 68 66 69 69 70 71 70 65 68 74 76 74 71 71 73 75 68 66 64 64 67 69 71 66 59 58 59 60 62 55 52 57 61 64 63 66 67 59 55 57 57
66 67 70 74 76 73 72 72 70 70 70 77 81 82 68 73 76 76 76 78 77 76 78 78 70 68 65 57 60 62 63 59 59 58 57 60 60 62 69 70 63 59 55 59
67 68 71 75 75 77 77 77 74 69 73 73 74 84 73 76 77 75 80 81 82 82 82 81 81 69 70 70 68 71 66 62 60 61 62 62 62 64 72 71 66 63 63 65
71 74 67 76 76 76 76 74 71 71 72 76 79 78 70 74 74 82 85 84 84 83 83 79 78 80 76 75 71 70 72 68 71 70 66 66 66 68 65 67 71 74 71 70
73 77 77 76 77 76 78 76 75 77 81 81 77 71 70 69 72 82 89 88 85 86 82 82 81 82 82 80 81 78 78 78 77 76 66 66 70 75 74 76 80 70 74 81
69 73 70 72 72 70 72 72 73 77 74 66 68 73 75 74 71 70 72 71 76 75 76 80 79 80 84 88 85 85 81 80 81 76 67 66 65 70 84 81 79 82 75 85
68 71 70 69 60 58 61 62 66 72 73 76 75 82 86 78 76 76 68 70 72 77 85 84 82 80 79 82 87 89 86 84 76 82 78 75 75 79 73 79 76 84 79 84
66 67 68 74 65 72 81 79 75 76 79 84 87 86 82 87 92 89 81 83 86 85 86 94 93 86 83 82 81 80 83 90 88 81 83 81 77 77 82 84 79 83 84 85
71 70 73 80 76 84 80 79 82 84 84 84 86 86 86 85 88 95 98 99 98 95 94 90 88 88 90 80 81 82 85 85 74 74 74 79 79 80 82 85 85 85 84 76
74 73 79 81 82 86 84 82 83 85 88 88 89 90 89 90 89 85 88 89 90 90 88 87 86 86 85 82 82 84 81 79 87 88 84 82 81 81 86 91 92 89 85 78
76 78 82 84 86 90 87 86 86 88 90 88 88 87 87 88 88 83 86 88 89 89 89 88 87 87 98 105 107 97 101 99 97 102 98 94 91 89 85 84 87 94 95 87
75 76 76 77 79 81 79 76 76 77 79 81 82 82 84 86 86 86 84 85 86 86 85 83 82 82 78 81 86 86 84 82 88 89 90 92 89 91 86 77 70 74 79 82
69 69 69 70 72 76 73 73 73 73 74 77 79 81 83 84 83 84 83 83 84 84 84 85 85 84 83 80 83 76 75 80 81 80 76 73 81 87 85 76 69 74 76 77
62 59 63 65 67 64 65 68 68 71 74 76 79 77 79 80 80 81 82 82 83 85 86 87 89 89 88 91 96 98 99 103 101 99 97 88 84 80 84 81 69 71 81 84
55 56 62 63 60 64 67 67 68 68 71 71 71 71 70 72 73 74 75 76 77 79 83 85 87 89 87 90 93 95 98 111 111 108 102 93 93 89 87 85 73 72 66 66
54 56 56 62 60 62 63 64 64 64 63 63 63 62 63 65 66 69 71 71 73 76 78 81 83 84 85 86 88 90 93 97 100 106 105 104 95 89 89 84 75 71 64 69
52 53 57 61 56 55 59 56 55 57 57 56 56 56 57 60 64 68 70 72 75 76 76 78 78 81 82 83 84 85 87 89 91 94 97 96 97 93 93 89 81 78 80 77

GFSCGP_500_spd_030.txt.gz
Wind_Speed
49 52 51 48 48 48 50 52 52 49 49 51 47 48 48 42 36 34 33 35 37 41 37 35 34 35 33 33 35 32 33 36 37 38 38 36 34 34 34 35 37 37 37 37
49 52 50 50 50 51 53 55 56 56 52 52 54 51 49 51 42 36 32 34 36 38 36 35 34 31 34 37 34 36 35 32 32 35 37 38 39 38 39 39 42 43 43 42
50 53 51 52 53 52 53 58 55 56 55 55 57 57 55 49 44 38 36 34 35 40 35 32 35 36 34 34 37 34 33 34 34 35 37 39 39 39 41 41 43 45 47 49
51 47 50 52 54 51 58 55 57 56 56 58 56 59 57 53 52 50 49 42 37 36 39 38 38 42 39 38 32 36 41 41 39 41 41 41 41 40 40 42 43 43 45 47
46 48 51 55 55 56 59 56 60 61 60 63 61 61 64 56 57 38 35 43 43 41 41 44 39 38 43 45 44 46 45 45 47 47 47 45 47 47 47 45 46 46 47 48
50 53 54 53 53 54 56 58 60 63 60 62 62 61 64 57 50 49 58 50 38 39 37 43 47 47 51 52 53 53 52 51 50 48 48 50 51 50 50 51 50 51 51 52
47 50 51 48 51 50 50 54 59 60 59 61 62 64 67 60 59 59 57 52 41 39 48 56 58 55 57 57 58 58 56 56 56 54 53 52 52 53 54 54 54 55 58 59
52 50 46 47 46 50 53 55 52 53 57 60 60 63 66 64 66 64 60 63 64 65 68 66 64 64 63 60 58 60 60 61 62 63 63 63 62 60 57 59 58 58 60 63
54 50 52 50 52 55 59 58 54 58 60 66 66 63 65 66 68 68 68 68 67 60 61 48 37 40 42 49 63 68 67 65 66 65 67 66 65 64 65 61 62 65 64 61
63 65 61 63 58 57 56 53 56 57 64 68 67 70 70 68 71 68 66 60 58 49 54 57 59 66 70 72 74 73 70 69 68 68 69 67 71 73 73 70 66 67 65 63
58 60 64 67 68 62 67 69 69 71 60 49 51 65 63 65 69 72 76 76 72 70 71 71 72 74 74 75 74 74 73 71 69 67 66 66 64 63 66 70 69 70 73 73
57 63 65 63 59 63 61 61 61 65 69 72 77 81 67 71 73 74 76 75 77 77 76 74 75 77 77 78 78 79 79 77 77 76 72 67 67 71 74 79 78 72 74 74
60 63 62 65 63 63 62 62 63 66 66 69 72 69 61 63 71 75 77 79 81 81 76 77 79 83 86 85 82 82 82 81 76 75 78 73 69 72 77 81 82 79 78 78
59 62 62 63 64 66 60 60 63 48 45 48 50 53 57 61 69 80 79 79 81 84 86 87 87 86 88 88 82 78 78 77 79 79 76 76 76 74 79 84 86 82 83 81
61 63 62 64 65 66 69 69 67 72 72 78 78 82 77 78 77 78 74 77 82 85 89 91 91 92 92 86 84 81 81 85 88 88 86 81 77 80 82 82 85 88 85 81
60 65 65 67 66 71 76 74 74 77 82 82 81 83 81 79 78 79 79 77 79 85 88 90 89 88 89 89 88 87 91 96 100 100 100 98 89 83 89 86 83 83 80 77
66 68 71 76 73 78 83 75 77 79 78 78 80 77 78 79 77 76 77 78 79 82 89 94 95 97 97 99 100 102 102 104 103 101 101 101 101 97 93 95 92 95 93 93
73 74 75 81 77 84 84 78 78 78 78 79 79 79 79 79 79 78 80 82 82 85 86 89 93 98 102 105 106 108 109 111 111 110 109 108 106 103 102 101 104 106 99 96
73 72 75 75 76 80 78 70 69 71 72 71 72 73 73 76 79 78 79 81 84 84 88 90 93 95 97 99 103 104 104 105 105 105 106 106 104 104 103 102 104 107 110 111
75 68 66 68 68 69 65 62 61 61 65 64 66 67 68 70 73 71 69 71 74 76 77 79 81 83 85 87 90 92 93 94 95 95 97 98 99 100 101 99 98 99 101 99
64 62 62 61 64 66 59 58 57 56 57 58 61 62 62 64 65 65 64 66 68 70 72 75 76 77 77 80 83 84 86 88 91 92 92 91 91 91 92 93 92 91 91 90
56 57 57 58 59 60 55 54 52 52 53 55 57 58 61 63 64 66 67 68 70 72 73 75 77 78 78 81 85 86 87 90 92 94 94 94 94 93 93 94 93 95 94 91
53 53 56 55 53 50 51 50 50 52 56 55 59 59 61 63 64 66 66 66 67 69 71 71 73 76 75 77 81 84 84 87 90 92 93 94 95 93 92 91 91 93 94 96
48 50 53 55 45 48 49 50 53 54 57 57 59 60 62 62 63 63 62 61 61 61 65 68 71 73 75 77 79 83 85 87 87 86 85 85 86 84 84 85 86 87 88 91
43 49 48 51 44 49 48 51 53 54 55 56 58 59 59 59 58 57 55 56 61 64 64 66 69 70 71 73 73 74 76 77 75 73 73 74 74 74 73 74 75 77 78 82
39 45 49 50 45 50 51 52 53 54 55 57 57 55 54 53 52 53 55 59 63 64 64 63 62 64 63 64 63 62 63 62 60 57 56 56 56 55 56 58 58 61 64 68

GFSCGP_500_spd_033.txt.gz
Wind_Speed
46 48 50 47 49 50 51 53 53 52 50 55 53 49 51 53 46 37 40 39 40 41 39 42 42 41 40 38 37 35 35 36 37 38 40 40 39 37 37 36 37 39 39 41
49 52 52 52 50 53 53 54 56 55 54 57 55 58 54 52 53 49 42 40 41 42 41 39 41 40 36 37 40 37 35 36 36 37 38 39 41 41 41 41 41 41 41 41
54 56 58 56 56 55 54 58 59 60 59 59 62 60 59 58 50 51 43 42 42 41 39 37 36 39 42 38 36 38 39 38 38 39 39 40 42 42 44 44 44 44 46 47
51 51 53 58 56 56 58 53 56 60 60 62 65 68 62 63 60 62 58 52 50 46 43 45 43 43 43 45 45 46 46 46 38 36 38 40 41 42 43 44 46 47 48 49
47 48 48 49 51 50 52 54 57 60 65 66 65 67 67 60 63 63 60 56 39 21 22 30 38 43 46 48 47 46 45 44 42 47 48 46 46 49 51 51 50 51 52 54
46 48 47 47 48 50 54 55 55 56 57 59 59 60 64 59 61 61 58 43 28 28 43 41 46 44 49 50 48 44 45 53 58 54 50 49 48 49 50 51 52 54 56 56
50 49 50 49 47 48 52 54 57 58 59 57 58 59 59 56 58 56 54 51 53 50 41 43 46 43 48 56 52 55 59 56 61 61 60 58 52 53 52 55 58 58 57 59
50 48 46 47 47 50 53 50 54 58 58 58 58 60 64 64 61 60 60 60 56 51 44 45 42 43 51 60 59 63 69 66 72 67 66 66 60 56 58 56 60 62 62 60
55 57 59 59 57 59 57 56 58 59 58 60 60 62 62 65 65 67 67 70 68 66 61 60 61 58 55 62 67 63 60 63 69 74 70 66 70 74 72 67 66 65 65 65
55 55 54 55 60 59 52 51 55 60 64 67 66 63 61 63 65 71 72 67 63 64 62 55 54 57 57 55 55 55 60 65 72 66 69 72 81 78 78 77 75 74 72 70
52 53 53 54 52 48 53 55 57 58 61 65 66 66 59 61 65 66 68 72 72 75 75 72 70 73 70 69 73 73 73 71 75 82 80 81 79 80 80 80 79 79 78 74
57 57 56 54 50 52 55 57 57 61 62 62 64 64 49 58 64 67 72 75 78 81 80 76 80 78 73 75 78 80 81 82 83 82 81 80 80 79 78 78 78 78 81 84
57 59 60 60 56 56 55 55 57 59 57 56 55 55 56 62 65 70 76 74 72 75 78 79 80 77 78 82 81 80 84 83 82 84 84 84 83 83 83 80 78 78 78 83
58 59 59 60 61 60 59 55 55 57 62 59 57 58 53 49 53 57 62 71 68 73 76 74 78 83 88 92 88 84 87 87 89 90 91 89 87 86 81 82 82 77 77 78
60 62 62 64 63 62 62 62 60 62 63 68 68 70 67 70 74 72 64 65 76 83 87 89 97 94 99 100 99 95 95 97 98 99 97 95 93 91 93 86 86 83 82 82
61 63 64 65 62 65 69 66 66 68 69 74 77 81 76 80 81 85 93 99 103 102 100 101 102 103 100 98 100 101 101 99 99 99 99 99 99 99 96 96 95 94 94 92
62 63 66 71 67 71 77 71 74 77 76 77 81 81 82 85 86 87 90 92 92 92 92 93 95 96 96 97 98 98 99 100 100 101 102 104 108 109 109 108 106 106 104 100
65 66 69 75 73 80 77 79 81 81 81 77 74 74 72 73 75 78 80 79 81 81 81 83 87 90 92 94 96 99 101 103 106 107 108 109 110 110 110 112 113 114 119 117
66 69 73 76 79 83 81 78 77 75 74 68 67 65 65 66 68 65 66 70 69 71 72 75 79 81 84 87 90 91 93 98 102 104 105 106 106 108 109 110 111 115 119 119
70 71 74 78 81 83 81 75 69 62 68 61 60 61 62 64 65 60 59 61 63 64 65 68 69 70 72 75 79 82 83 84 86 89 91 93 95 96 97 98 98 99 101 103
71 72 75 77 77 79 74 70 63 62 58 57 57 57 57 57 57 56 54 56 59 60 61 63 65 66 69 73 76 77 80 84 86 87 87 89 91 94 95 96 95 95 95 96
70 72 75 72 70 68 66 62 57 55 54 54 55 55 57 57 56 56 57 58 60 61 62 64 66 68 70 74 77 78 80 83 86 87 87 88 90 91 93 95 94 96 96 97
68 66 67 67 64 59 58 56 53 53 54 53 54 54 55 55 57 59 60 60 61 62 64 65 67 68 68 71 74 76 79 83 84 84 86 87 86 86 86 87 87 87 88 90
64 60 62 59 56 51 51 52 51 50 53 52 53 53 55 57 57 58 59 60 60 60 60 62 64 67 67 70 73 76 79 81 81 80 79 79 77 74 72 71 70 69 67 67
54 53 52 57 51 49 50 49 50 51 51 52 53 54 56 58 58 59 58 56 55 56 58 61 63 65 66 68 70 71 73 73 72 70 67 65 62 61 61 63 64 64 63 62
47 47 52 53 48 50 50 48 48 51 52 53 53 54 56 58 59 57 55 53 53 55 58 60 62 63 63 62 60 61 61 64 64 60 56 56 57 59 60 56 56 59 59 59